Location: Gebenbach
(49.5378°N, 11.8735°E)
Time: 12:02:06
(UTC+00:00)

Meteor 2-15 Rocket - Pass Details

Date: 29 October 2020
Orbit: 938 x 957 km, 82.5° (Epoch: 24 November)

Event Time Altitude Azimuth Distance (km) Brightness Sun altitude
Rises 17:34:23 0° 177° (S) 3,623 7.5 -16.6°
Reaches altitude 10° 17:36:53 10° 175° (S) 2,680 6.8 -17.0°
Maximum altitude 17:42:56 65° 95° (E) 1,048 4.4 -18.0°
Drops below altitude 10° 17:49:01 10° 15° (NNE) 2,691 6.7 -19.0°
Sets 17:51:32 0° 13° (NNE) 3,638 7.4 -19.4°
